Regional Weather Roundup
Issued by NWS

Home | Current Version | Previous Version | Graphics & Text | Print | Product List | Glossary On
Versions: 1 2 3 4 5 6 7 8 9 10 11 12 13 14 15 16 17 18 19 20 21 22 23 24 25 26 27
000
ASUS45 KSLC 191110
RWRUT

UTAH REGIONAL WEATHER ROUNDUP
NATIONAL WEATHER SERVICE SALT LAKE CITY UT
500 AM MDT TUE SEP 19 2017

UTZ001>011-023>025-191200-

NORTHERN UTAH

CITY           SKY/WX    TMP DP  RH WIND       PRES   REMARKS
BRIGHAM CITY   CLOUDY    49  44  83 NW13      29.81R
HILL AFB       LGT RAIN  54  50  87 W6        29.79R
LOGAN          LGT RAIN  48  43  82 N16G25    29.81R
OGDEN          LGT RAIN  54  51  90 NW7       29.77S
SALT LAKE CITY LGT RAIN  60  53  77 NW8       29.76R
TOOELE VALLEY  LGT RAIN  55  52  88 N9        29.77R
WENDOVER       MOCLDY    60  35  39 N13       29.78R
HEBER CITY     LGT RAIN  63  32  31 SW21G33   29.75S
WEST JORDAN    CLOUDY    56  55  97 W6        29.77R

$$

UTZ011>015-024>027-191200-

CENTRAL/NORTHEAST UTAH

CITY           SKY/WX    TMP DP  RH WIND       PRES   REMARKS
PROVO AIRPORT  CLOUDY    67  46  47 SW10      29.75S
MOAB/CANYONLAN MOCLDY    63  30  28 SW7       29.80R
DELTA          PTCLDY    64  34  32 S20G29    29.79S
PRICE          MOCLDY    52  37  56 NE9       29.84S
ROOSEVELT      CLOUDY    50  39  66 CALM      29.78S
VERNAL         CLOUDY    62  33  33 SW10      29.75S

$$

UTZ013>016-019>022-027-191200-

SOUTHERN UTAH

CITY           SKY/WX    TMP DP  RH WIND       PRES   REMARKS
BRYCE CANYON   MOCLDY    52  33  48 SW14      30.04F
CEDAR CITY     MOCLDY    62  35  36 S22G31    29.88F
MILFORD        MOCLDY    59  38  45 S13       29.84F
ST GEORGE      CLOUDY    70  38  31 SE13      29.80F
HANKSVILLE     MOCLDY    70  30  23 SW16G28   29.84S
BLANDING         N/A     50  20  31 CALM      30.07S

$$

REGIONAL REPORTS     COLORADO/ARIZONA

CITY           SKY/WX    TMP DP  RH WIND       PRES   REMARKS
CRAIG, CO      CLOUDY    43  34  70 VRB3      29.83F
GRAND JUNCTION CLOUDY    59  29  31 SE10      29.83S
RIFLE, CO      CLOUDY    68  20  16 S10G16    29.85S
MONTROSE, CO   CLOUDY    57  26  30 S9        29.96R
CORTEZ, CO     CLOUDY    42  28  57 E6        30.03S
PAGE, AZ       MOCLDY    65  25  22 S6        29.90S
GRAND CANYON   PTCLDY    37  25  61 CALM      30.09S
KINGMAN, AZ    CLEAR     69  45  41 S12       29.89F
FLAGSTAFF, AZ  CLEAR     50  25  37 W8        30.13R

$$

REGIONAL REPORTS    NEVADA/IDAHO/WYOMING

CITY           SKY/WX    TMP DP  RH WIND       PRES   REMARKS
LAS VEGAS, NV  MOCLDY    76  37  24 S8        29.73F
ELY, NY        CLEAR     56  25  30 W13       29.88R
ELKO, NV       MOCLDY    50  34  54 W5        29.87R
POCATELLO, ID  CLOUDY    43  39  86 S18       29.82F
BURLEY, ID     CLOUDY    43  38  82 SW12      29.83R
FORT BRIDGER,    N/A     46  44  95 W12       29.85S
EVANSTON, WY   CLOUDY    45  43  93 SW13      29.83F
ROCK SPRINGS,  CLOUDY    47  38  71 SW8       29.83R
KEMMERER, WY   RAIN      43  41  93 W14       29.82F

$$




USA.gov is the U.S. government's official web portal to all federal, state and local government web resources and services.